TimeEDT,TemperatureF,Dew PointF,Humidity,Sea Level PressureIn,VisibilityMPH,Wind Direction,Wind SpeedMPH,Gust SpeedMPH,PrecipitationIn,Events,Conditions,WindDirDegrees,DateUTC
12:53 AM,73.0,71.1,93,30.04,10.0,Calm,Calm,-,N/A,,Clear,0,2013-09-17 04:53:00
1:53 AM,72.0,70.0,93,30.05,10.0,Calm,Calm,-,N/A,,Clear,0,2013-09-17 05:53:00
2:53 AM,71.1,69.1,93,30.04,10.0,Calm,Calm,-,N/A,,Clear,0,2013-09-17 06:53:00
3:53 AM,71.1,69.1,93,30.03,10.0,Calm,Calm,-,N/A,,Clear,0,2013-09-17 07:53:00
4:53 AM,72.0,69.1,91,30.03,10.0,Calm,Calm,-,N/A,,Clear,0,2013-09-17 08:53:00
5:53 AM,71.1,69.1,93,30.04,10.0,Calm,Calm,-,N/A,,Clear,0,2013-09-17 09:53:00
6:53 AM,72.0,70.0,93,30.06,10.0,Calm,Calm,-,N/A,,Clear,0,2013-09-17 10:53:00
7:06 AM,71.6,69.8,94,30.07,10.0,Calm,Calm,-,N/A,,Scattered Clouds,0,2013-09-17 11:06:00
7:14 AM,73.4,71.6,94,30.07,7.0,Calm,Calm,-,N/A,,Mostly Cloudy,0,2013-09-17 11:14:00
7:53 AM,73.0,71.1,93,30.07,7.0,Calm,Calm,-,N/A,,Overcast,0,2013-09-17 11:53:00
8:13 AM,73.4,71.6,94,30.08,2.0,Calm,Calm,-,N/A,,Mostly Cloudy,0,2013-09-17 12:13:00
8:27 AM,75.2,71.6,89,30.09,2.0,Calm,Calm,-,N/A,,Scattered Clouds,0,2013-09-17 12:27:00
8:45 AM,77.0,73.4,89,30.09,10.0,NNE,4.6,-,N/A,,Partly Cloudy,30,2013-09-17 12:45:00
8:53 AM,78.1,73.9,87,30.08,10.0,NNE,4.6,-,N/A,,Partly Cloudy,20,2013-09-17 12:53:00
9:53 AM,81.0,73.9,79,30.09,10.0,NE,5.8,-,N/A,,Clear,50,2013-09-17 13:53:00
10:31 AM,82.4,73.4,74,30.10,10.0,ENE,8.1,-,N/A,,Mostly Cloudy,60,2013-09-17 14:31:00
10:53 AM,84.0,73.9,72,30.10,10.0,NE,8.1,-,N/A,,Mostly Cloudy,40,2013-09-17 14:53:00
11:00 AM,84.2,73.4,70,30.11,10.0,East,6.9,-,N/A,,Mostly Cloudy,80,2013-09-17 15:00:00
11:11 AM,84.2,73.4,70,30.10,10.0,ENE,9.2,-,N/A,,Scattered Clouds,70,2013-09-17 15:11:00
11:53 AM,87.1,72.0,61,30.09,10.0,NE,9.2,-,N/A,,Partly Cloudy,50,2013-09-17 15:53:00
12:53 PM,89.1,71.1,55,30.07,10.0,ENE,11.5,-,N/A,,Mostly Cloudy,60,2013-09-17 16:53:00
1:53 PM,91.0,70.0,50,30.04,10.0,East,8.1,-,N/A,,Partly Cloudy,80,2013-09-17 17:53:00
2:53 PM,88.0,69.1,53,30.02,10.0,ENE,11.5,-,N/A,,Scattered Clouds,60,2013-09-17 18:53:00
3:53 PM,91.0,70.0,50,30.00,10.0,ENE,13.8,20.7,N/A,,Scattered Clouds,70,2013-09-17 19:53:00
4:53 PM,87.1,69.1,55,30.00,10.0,NE,17.3,25.3,N/A,,Clear,50,2013-09-17 20:53:00
5:53 PM,87.1,68.0,53,30.00,10.0,NE,12.7,-,N/A,,Clear,50,2013-09-17 21:53:00
6:53 PM,82.9,68.0,60,30.01,10.0,ENE,12.7,-,N/A,,Clear,60,2013-09-17 22:53:00
7:53 PM,80.1,69.1,69,30.03,10.0,ENE,5.8,-,N/A,,Clear,70,2013-09-17 23:53:00
8:53 PM,77.0,71.1,82,30.03,10.0,NE,5.8,-,N/A,,Clear,50,2013-09-18 00:53:00
9:53 PM,75.0,71.1,87,30.05,10.0,NE,5.8,-,N/A,,Partly Cloudy,50,2013-09-18 01:53:00
10:53 PM,75.0,71.1,87,30.06,10.0,NE,5.8,-,N/A,,Clear,50,2013-09-18 02:53:00
11:53 PM,75.0,72.0,90,30.06,9.0,NE,6.9,-,N/A,,Clear,40,2013-09-18 03:53:00